Location: ČR
(50.0000°N, 15.0000°E)
Time: 15:41:54
(UTC+00:00)

ISS - Visible Passes

Search period start: 24 June 2021 00:00
Search period end: 04 July 2021 00:00
Orbit: 419 x 422 km, 51.6° (Epoch: 24 June)

Date Brightness Start Highest point End Pass type
(mag) Time Alt. Az. Time Alt. Az. Time Alt. Az.
30 Jun -1.7 01:36:33 10° S 01:38:55 18° SE 01:41:20 10° E visible
01 Jul -1.4 00:53:04 12° SSE 00:54:02 13° SE 00:55:38 10° ESE visible
02 Jul -3.0 01:42:59 13° SW 01:45:48 40° SSE 01:49:01 10° E visible
03 Jul -2.6 01:00:03 21° S 01:01:30 30° SE 01:04:33 10° E visible
